Location: Pedholt
(56.0260°N, 10.2097°E)
Time: 21:13:14
(UTC+00:00)

Tiros 1 - Pass Details

Date: 03 August 2021
Orbit: 630 x 663 km, 48.4° (Epoch: 19 September)

Event Time Altitude Azimuth Distance (km) Brightness Sun altitude
Rises 17:14:47 0° 222° (SW) 2,982 11.1 15.7°
Reaches altitude 10° 17:17:33 10° 207° (SSW) 2,068 10.1 15.4°
Maximum altitude 17:21:13 22° 157° (SSE) 1,416 8.7 14.9°
Drops below altitude 10° 17:24:52 10° 107° (ESE) 2,058 9.2 14.3°
Sets 17:27:36 0° 92° (E) 2,965 9.9 14.0°
